Tracking 30298 objects as of 27-Apr-2025
HD Live streaming from Space Station
objects crossing your sky now

COSMOS 2299

Track COSMOS 2299 now!
10-day predictions
COSMOS 2299 is classified as:


NORAD ID: 23441
Int'l Code: 1994-086A
Perigee: 1,408.1 km
Apogee: 1,420.9 km
Inclination: 82.6 °
Period: 113.9 minutes
Semi major axis: 7785 km
RCS: 1.0821 m2 (large)
Launch date: December 26, 1994
Source: Commonwealth of Independent States (former USSR) (CIS)
Launch site: PLESETSK MISSILE AND SPACE COMPLEX (PKMTR)
Your satellite tracking list
Your tracking list is empty




NASA's NSSDC Master Catalog

Two Line Element Set (TLE):
1 23441U 94086A   25116.92837872  .00000033  00000-0  12272-3 0  9995
2 23441  82.5725 203.5281 0008256  72.1028 288.0963 12.63784372399120
Source of the keplerian elements: AFSPC